GFSNGP_sfc_dewp_225.txt.gz
Dewpoint
30 30 29 31 32 31 31 34 31 32 29 29 29 30 31 35 33 33 31 30 32 32 36 40 53 59 59 59 60 61 62 62 63 62 63 64 65 64 63 63 63 63 62 61
31 32 31 29 30 33 28 29 35 36 35 38 38 37 36 35 35 34 34 34 33 34 34 37 50 57 59 59 59 60 60 61 62 62 63 63 63 62 62 61 61 60 58 57
24 24 25 26 28 28 30 34 33 32 32 34 36 36 34 34 35 35 35 35 36 36 36 38 42 54 58 59 59 60 60 59 58 59 59 60 60 60 59 58 57 55 54 53
25 23 19 22 22 27 29 28 33 29 30 32 31 31 31 31 32 33 34 35 38 38 38 39 42 47 57 59 59 59 59 59 59 58 58 59 58 57 55 54 54 53 51 50
23 22 19 20 24 26 24 24 29 30 31 31 32 33 31 30 32 34 37 42 42 42 41 38 38 40 49 57 58 59 59 59 59 60 58 58 57 55 54 53 51 49 49 47
26 20 15 19 19 23 29 25 26 32 34 34 34 29 29 31 35 36 38 41 43 38 36 36 40 44 49 55 57 58 58 59 58 59 58 58 57 53 52 51 48 47 45 45
25 23 22 21 23 27 22 22 26 27 30 34 33 30 30 34 35 36 37 38 35 33 36 38 40 42 49 54 56 57 58 59 58 58 58 57 54 52 50 48 46 44 42 42
25 23 20 25 24 22 25 28 28 28 29 31 32 32 34 34 34 31 29 30 30 32 36 39 42 42 42 48 53 56 57 58 57 57 54 53 52 50 48 46 43 40 39 38
26 23 30 29 27 29 30 29 29 29 29 31 31 30 31 33 32 32 31 28 29 32 36 39 39 38 40 45 50 55 56 56 55 54 51 52 50 48 46 45 42 40 40 39
30 26 31 32 31 31 33 32 32 32 32 32 32 33 32 31 31 31 30 30 32 35 35 36 35 39 43 43 48 54 55 55 51 50 49 49 48 47 45 44 42 40 39 38
26 27 28 28 30 32 32 32 31 31 31 31 32 32 31 31 30 31 32 33 33 34 33 34 33 38 42 45 50 52 53 49 48 47 47 45 45 45 44 44 43 42 40 39
26 28 30 30 31 33 32 31 32 32 32 33 32 31 31 32 32 31 31 32 32 32 32 34 37 42 45 48 50 51 47 46 45 45 44 41 39 36 35 36 36 37 36 37
28 31 33 33 33 32 32 33 33 32 33 33 34 34 33 31 31 32 32 31 31 31 35 38 42 44 45 47 49 48 45 44 42 41 40 39 38 37 34 35 36 36 35 35
33 33 31 32 31 34 33 33 34 33 33 35 35 34 36 36 34 31 30 30 31 32 39 41 42 44 45 47 46 45 43 38 40 40 39 38 38 37 37 36 35 34 34 35
31 32 32 33 34 32 33 34 33 31 30 31 32 33 35 35 37 35 33 31 31 36 39 42 43 43 44 43 42 40 39 39 39 38 38 37 37 36 36 35 33 31 32 32
31 33 33 35 34 31 33 33 34 33 33 32 32 33 33 35 37 37 35 35 39 40 41 41 41 41 41 40 39 38 38 36 36 36 36 36 36 36 35 33 32 32 32 33
33 31 33 32 31 31 33 33 34 33 33 32 32 33 36 37 36 38 37 40 41 42 41 40 38 39 38 39 38 37 36 36 35 36 36 36 35 34 33 32 32 34 33 31
34 34 34 33 31 31 31 32 33 33 32 32 33 32 32 34 37 37 40 40 37 37 37 38 37 37 37 38 37 37 36 36 36 34 34 33 33 33 33 33 32 30 29 30
31 30 31 30 31 31 31 31 32 33 33 32 32 32 32 32 35 36 36 35 35 33 34 36 34 36 37 37 36 35 34 33 33 33 33 32 32 32 31 30 30 31 29 30
30 31 30 29 30 31 30 31 31 32 33 33 33 32 32 32 32 32 31 30 31 32 33 33 34 33 33 34 34 35 34 33 32 31 31 31 31 31 30 29 30 31 32 32
29 29 29 29 30 30 31 31 31 31 32 32 32 32 32 32 32 33 32 30 32 33 33 33 33 32 34 34 34 34 33 32 31 30 31 31 31 30 31 31 31 32 32 33
29 29 29 29 29 30 30 31 31 32 32 31 31 32 32 32 33 32 32 31 32 33 33 33 33 33 32 32 32 32 31 30 29 30 30 31 30 30 30 30 31 32 32 33
29 28 28 29 29 29 29 29 31 31 31 31 30 30 31 31 31 31 30 32 34 33 33 32 31 31 31 33 32 32 30 30 30 31 31 32 32 32 31 30 31 32 31 31
29 27 27 28 27 27 27 27 27 29 30 29 30 31 30 30 31 31 31 31 31 32 31 31 30 30 30 32 32 32 31 31 31 31 28 27 29 29 29 28 29 29 29 28
26 26 25 25 25 26 26 26 26 26 27 26 26 28 30 32 29 29 30 29 27 29 29 28 29 29 32 32 31 31 31 30 30 29 28 29 29 28 28 27 27 27 27 27
23 23 22 21 21 22 22 23 22 23 24 24 24 25 27 28 28 30 31 30 28 27 29 31 32 32 31 30 29 29 30 28 29 29 30 29 28 27 27 27 27 26 27 27
20 21 19 18 18 17 18 18 19 19 20 21 20 21 22 24 25 26 27 28 30 30 29 30 31 29 29 30 29 29 30 30 29 29 30 29 27 27 27 27 27 28 27 26

GFSNGP_sfc_dewp_228.txt.gz
Dewpoint
28 24 19 22 26 26 27 34 32 29 28 30 32 34 35 31 32 33 33 33 33 34 35 36 38 41 42 50 58 60 60 59 60 62 64 65 67 68 68 67 66 66 67 66
31 27 26 27 24 26 27 26 27 27 27 33 33 35 33 34 36 34 34 34 34 34 33 34 36 38 42 47 55 61 61 62 62 63 64 65 66 65 65 64 65 65 64 63
25 21 22 26 29 22 21 21 23 23 26 26 24 26 29 29 30 31 34 35 34 34 35 36 36 39 43 46 51 58 61 61 62 63 62 63 63 63 63 63 62 62 62 60
26 23 20 19 16 16 18 18 20 23 25 23 21 21 22 22 26 28 32 34 34 32 33 38 35 35 39 41 46 55 58 60 60 61 61 62 62 62 62 60 59 59 57 56
24 21 19 17 17 17 19 18 20 22 25 22 22 22 21 24 28 30 30 32 34 35 41 38 34 36 39 43 45 51 55 57 60 60 59 60 61 61 61 59 57 55 55 53
26 21 17 17 15 16 18 19 20 19 20 20 25 25 23 25 27 30 30 33 37 39 35 34 33 34 36 43 45 47 52 56 58 61 59 59 60 59 58 57 53 52 50 49
25 24 21 19 19 20 20 19 19 19 22 24 25 25 28 32 31 31 32 32 31 31 31 31 32 35 33 37 39 45 53 57 59 59 61 60 60 57 55 52 49 48 46 45
26 25 23 27 23 25 30 35 33 31 31 31 30 30 31 30 29 28 28 28 30 31 29 31 34 35 33 32 36 38 46 54 58 60 59 59 57 55 53 51 46 43 41 39
24 22 26 28 27 28 29 32 34 34 33 32 33 33 33 32 32 30 29 28 28 28 28 29 32 32 32 34 34 38 42 48 54 58 58 56 55 52 50 49 45 42 41 41
25 25 23 23 25 28 32 31 30 30 30 31 31 32 32 32 32 31 29 28 28 29 29 29 31 32 33 31 35 39 42 47 52 57 54 54 53 51 50 47 45 42 41 41
24 24 23 23 28 30 31 31 30 30 31 32 32 31 30 30 31 30 29 30 29 30 31 30 30 30 29 28 34 40 44 47 53 54 51 52 51 50 49 49 47 44 43 41
26 25 26 28 30 31 30 30 32 32 32 32 33 33 33 33 34 33 32 30 28 30 32 32 31 30 30 32 37 43 45 49 52 50 50 48 42 39 35 39 39 41 40 41
26 27 31 33 31 30 31 33 33 33 32 32 34 34 34 34 34 35 35 34 32 30 31 31 31 31 31 36 43 46 47 49 47 45 44 42 41 40 35 35 35 35 36 36
24 28 30 30 30 32 34 36 35 33 33 33 33 32 32 32 33 34 35 35 35 34 31 30 31 32 34 38 42 46 48 39 45 44 43 41 41 39 37 36 35 35 35 36
29 31 31 32 33 33 36 36 35 32 32 34 34 33 32 32 31 31 32 34 34 36 35 32 33 34 36 41 44 46 47 44 44 42 41 40 39 38 37 37 35 34 34 34
30 31 33 35 35 34 31 34 35 34 34 34 34 33 34 34 33 34 33 34 36 38 38 37 36 35 42 46 46 45 43 38 38 39 38 37 37 36 35 34 34 34 33 33
32 32 32 33 33 31 31 34 34 34 34 34 33 34 34 34 33 34 34 35 37 40 40 38 42 43 46 45 42 39 38 37 36 37 36 36 35 34 34 33 33 33 32 33
30 31 33 34 33 32 32 32 33 33 33 34 34 33 33 32 31 33 35 37 37 39 42 43 43 41 41 40 38 37 37 36 36 35 35 35 34 34 33 33 32 32 32 32
30 30 31 31 31 31 32 32 32 33 34 33 32 32 33 32 31 33 35 34 34 33 34 36 34 36 36 35 36 37 36 35 35 35 34 33 34 34 33 32 32 32 31 31
30 30 30 30 31 31 32 33 33 33 33 33 33 32 32 32 32 32 31 30 31 32 34 34 34 33 33 33 33 34 33 33 33 34 33 33 33 32 32 32 32 32 32 33
29 29 30 29 31 33 33 33 33 32 32 33 32 32 32 32 33 33 32 30 32 32 33 33 34 34 35 35 35 34 32 32 32 32 32 32 32 32 32 32 32 32 33 34
30 29 31 32 31 29 34 32 31 32 31 31 32 32 32 31 32 33 32 32 34 33 34 35 34 33 34 34 35 33 32 32 33 33 32 32 32 32 32 32 32 32 32 33
30 28 28 30 30 28 29 30 32 30 31 30 30 30 31 32 30 29 28 31 33 33 34 33 32 32 32 34 33 32 32 32 32 32 32 32 32 32 32 33 33 33 32 33
29 28 28 28 28 28 27 28 28 28 30 28 29 30 30 30 32 32 32 31 31 31 32 32 32 32 33 33 33 32 33 33 33 32 32 32 32 33 33 33 33 33 32 32
28 27 27 27 26 26 26 27 27 27 27 28 28 28 29 30 30 31 32 32 31 32 32 31 31 32 33 33 33 33 33 33 33 33 32 32 32 31 31 31 30 30 30 30
26 25 24 23 24 24 25 25 25 24 25 27 27 28 29 29 30 30 30 31 32 31 32 32 32 32 33 34 33 33 33 32 34 33 33 31 31 30 29 29 29 30 29 29
22 24 21 21 20 19 20 21 23 22 23 25 25 25 25 27 28 27 28 30 30 31 32 32 33 32 33 34 34 34 34 33 32 33 33 32 30 31 30 29 29 30 31 31

GFSNGP_sfc_dewp_231.txt.gz
Dewpoint
25 23 21 24 19 19 20 22 31 30 25 31 30 28 30 29 30 31 32 33 33 33 35 36 37 38 38 39 42 48 54 57 59 59 60 63 66 66 67 68 68 68 68 68
31 26 23 20 19 21 21 21 21 21 22 24 26 28 27 27 26 28 29 31 33 34 33 34 36 37 36 40 44 48 53 57 61 61 59 61 64 66 67 67 69 69 68 68
26 22 21 25 27 23 19 19 19 21 23 23 21 20 23 23 23 25 26 25 29 33 34 35 36 38 39 40 42 44 50 55 59 63 63 63 65 65 66 67 67 68 67 66
26 23 21 21 16 14 14 14 16 16 17 18 18 20 20 19 19 20 21 25 25 27 32 35 36 39 38 37 40 43 46 52 56 60 63 63 63 64 63 63 63 63 63 63
25 22 19 15 15 14 14 14 15 15 16 16 18 21 23 21 21 22 25 29 32 33 34 35 38 39 35 36 38 40 43 48 52 59 60 62 62 63 62 61 61 61 61 61
27 21 17 18 14 15 23 22 26 28 28 28 28 24 22 24 28 28 31 33 34 34 34 35 34 33 32 33 35 36 42 47 52 58 60 61 61 63 62 62 60 56 57 57
26 24 21 16 31 28 19 25 31 29 30 31 31 34 33 35 34 32 32 32 31 31 32 33 32 32 30 32 34 34 37 43 50 52 56 61 61 61 61 59 55 53 50 48
28 26 22 32 32 28 32 28 27 31 30 30 32 33 34 32 31 30 32 31 30 29 31 33 34 33 29 31 35 32 34 37 41 50 54 58 61 60 58 53 51 47 44 41
27 26 31 26 25 29 25 25 30 30 29 30 30 30 31 31 32 31 30 29 29 28 29 30 30 30 30 35 33 33 33 35 40 43 50 56 59 55 52 52 49 45 43 42
28 24 24 25 23 24 29 32 30 28 27 28 30 31 30 30 30 30 29 28 28 28 29 30 30 28 32 29 33 33 32 36 41 45 49 56 57 54 52 50 47 44 43 42
19 18 21 23 26 27 30 34 26 28 29 29 30 30 30 30 30 31 31 31 30 30 30 30 30 30 29 29 31 31 31 34 40 45 50 57 55 51 52 52 49 46 46 44
24 23 24 24 23 23 27 29 30 29 31 32 32 32 31 31 32 31 31 32 32 33 32 31 30 30 30 33 31 32 34 39 45 48 54 54 47 43 35 40 40 39 41 45
26 24 23 21 21 25 34 35 30 33 33 32 32 31 31 32 32 32 31 31 31 31 32 34 34 33 31 35 39 37 38 40 47 49 51 48 44 42 41 36 36 38 40 40
23 21 24 25 28 33 31 31 34 35 34 32 31 31 33 33 33 32 31 31 31 31 32 32 35 36 36 37 35 36 39 37 47 51 49 45 44 42 40 39 38 36 36 37
22 26 29 30 30 32 33 32 33 34 34 34 34 34 34 34 33 32 33 33 33 32 32 32 34 37 39 39 35 36 39 46 50 51 47 43 42 39 38 38 36 35 34 34
27 29 29 29 29 29 28 29 32 34 35 36 34 34 35 33 33 33 33 32 31 32 33 34 36 38 43 41 39 41 44 40 43 44 40 40 38 37 36 35 35 35 35 34
30 30 32 34 32 32 32 31 33 34 34 35 34 35 34 33 34 33 33 34 34 33 33 36 38 39 43 43 41 47 47 42 38 39 38 37 37 36 35 35 35 34 33 33
27 28 31 32 32 32 31 33 34 34 33 34 34 34 33 32 32 32 32 33 34 35 36 36 38 42 46 46 45 42 40 38 37 36 36 35 34 34 34 33 32 31 32 32
28 28 30 30 31 31 33 34 34 34 34 33 33 33 33 33 32 33 32 31 30 30 31 35 34 36 37 36 37 37 36 35 35 34 34 33 33 33 32 32 32 32 32 32
29 30 30 30 30 30 31 33 33 32 33 33 32 33 32 32 32 32 34 32 31 31 32 32 33 33 34 34 34 35 34 34 33 33 33 33 33 32 32 32 32 32 32 32
30 30 30 31 33 33 34 34 34 32 33 32 32 32 32 32 33 33 31 31 32 33 33 32 32 34 35 35 34 34 34 34 34 34 33 32 32 32 32 32 32 32 32 32
32 31 33 32 31 29 31 31 31 32 32 32 31 31 31 32 32 32 33 30 34 32 33 32 33 32 34 34 35 35 35 34 34 35 34 34 33 32 32 32 32 32 32 32
32 30 29 32 30 29 29 28 33 31 32 32 31 30 31 32 32 30 29 32 33 32 34 33 32 32 33 34 34 33 34 34 33 34 33 32 32 32 32 32 32 32 32 33
31 31 30 29 28 27 27 28 27 27 33 29 30 32 30 30 32 33 33 32 32 32 32 32 32 32 32 34 33 33 33 32 32 32 32 32 32 32 32 32 32 33 33 33
30 29 28 27 25 27 26 26 26 27 26 27 27 28 29 30 31 32 32 33 32 32 33 32 32 32 33 33 33 32 32 32 32 32 33 32 32 32 32 32 32 32 32 32
29 27 25 23 25 25 26 26 25 25 25 26 27 28 29 29 29 30 31 31 31 32 32 33 33 33 33 33 33 33 33 33 33 32 32 32 32 31 31 30 31 31 32 31
28 26 22 21 22 22 23 23 25 23 23 25 25 24 25 26 27 26 27 29 30 31 32 32 33 33 34 34 34 34 33 33 32 32 33 32 32 32 31 31 31 32 32 31

GFSNGP_sfc_dewp_234.txt.gz
Dewpoint
26 25 25 24 24 25 24 24 25 24 26 27 28 28 28 30 30 28 29 28 31 33 40 41 41 43 43 45 46 48 48 53 58 62 63 62 63 64 64 66 65 65 66 66
25 24 22 22 21 20 18 18 16 16 18 20 21 22 24 25 25 25 27 27 29 30 32 36 39 42 40 43 47 48 50 50 57 60 63 63 63 64 66 66 66 66 66 66
20 19 20 22 21 17 19 19 20 19 20 19 19 19 22 24 22 22 24 24 24 28 30 32 36 41 43 45 47 47 49 48 52 58 62 63 63 64 64 65 66 66 67 67
22 20 16 18 16 15 14 15 17 19 23 24 23 26 25 26 30 33 32 29 32 33 34 37 37 37 43 44 42 44 46 48 49 56 60 63 63 63 63 63 63 63 63 63
22 20 18 16 16 15 18 20 27 32 29 26 25 27 26 32 35 35 36 36 36 38 39 37 36 37 38 44 42 41 42 45 47 55 59 61 63 62 63 62 61 60 60 60
27 20 16 16 14 23 26 22 29 32 34 31 31 29 30 35 35 36 36 36 37 38 37 35 36 36 38 37 39 38 41 42 47 50 54 60 61 62 61 61 60 58 58 59
27 26 23 25 30 30 21 26 30 24 26 33 31 29 32 34 33 34 34 34 34 34 35 36 36 35 35 36 37 38 42 44 45 49 52 54 60 61 61 60 57 55 54 53
24 23 24 32 32 30 31 31 30 28 28 29 30 30 31 30 31 31 30 30 30 31 32 33 35 34 33 34 36 38 40 41 41 44 49 52 56 60 59 55 52 48 45 40
24 27 30 26 34 35 34 35 34 34 32 29 30 30 30 30 30 30 30 29 29 30 31 33 32 32 32 34 35 36 36 39 40 42 43 47 55 57 54 53 51 46 43 41
23 20 18 20 20 20 27 27 29 31 29 29 30 31 31 32 32 32 30 29 30 31 31 32 33 33 33 33 33 34 34 39 40 42 46 49 55 56 54 52 51 47 44 43
20 21 21 19 20 27 23 22 23 28 29 29 30 30 32 32 31 31 31 31 31 32 32 32 33 33 34 32 32 32 34 36 40 42 45 49 55 52 53 53 51 48 46 45
23 25 28 29 29 28 22 24 30 30 30 30 32 32 31 31 31 31 31 32 32 32 32 32 32 32 33 35 35 34 34 36 42 47 49 53 52 45 37 36 40 41 41 45
24 25 27 27 24 30 30 30 30 31 31 32 33 31 32 32 33 33 33 32 32 32 32 32 32 32 33 34 37 38 36 36 45 45 50 49 46 43 45 38 36 38 39 39
27 25 24 24 29 29 29 30 31 30 30 32 33 33 34 34 33 32 31 30 30 30 30 31 32 32 34 34 35 37 38 34 42 49 50 47 47 44 43 39 38 35 35 39
21 23 25 28 29 27 28 30 29 29 31 33 34 35 34 33 32 32 31 32 33 34 33 32 31 32 34 35 34 36 38 39 45 48 47 43 43 40 38 36 35 33 34 34
23 25 28 28 26 27 28 29 30 30 32 32 34 34 35 33 32 32 33 35 33 31 33 34 35 34 35 35 36 37 41 36 43 46 42 40 39 37 36 35 34 34 34 33
27 29 30 33 31 31 30 30 30 31 33 33 32 34 34 33 33 32 33 34 34 32 33 32 36 36 36 37 37 39 44 42 39 41 40 38 37 36 35 34 34 34 33 34
27 26 29 31 33 31 30 30 30 30 32 33 33 33 32 32 32 32 33 33 32 32 32 32 32 37 37 38 40 42 41 39 38 37 36 35 35 35 34 33 32 32 32 32
24 26 30 30 31 31 30 30 30 30 31 31 31 31 32 32 32 32 33 32 31 30 31 32 32 32 34 34 38 38 37 36 35 34 34 33 33 33 32 32 32 32 32 32
27 29 29 29 30 30 30 29 30 30 30 30 30 30 30 32 32 32 32 31 32 31 32 33 33 32 32 32 34 34 34 34 33 33 32 32 32 32 32 32 32 32 32 32
29 30 32 32 31 31 31 34 31 31 30 30 29 29 30 31 31 32 31 30 32 32 33 32 32 32 33 33 33 33 33 33 32 32 32 32 32 32 32 32 32 32 32 32
32 33 33 32 30 30 32 30 30 34 31 32 29 29 30 30 30 30 32 30 32 31 32 32 32 32 32 32 32 32 32 32 32 32 32 32 32 32 32 32 32 32 32 32
32 33 32 32 30 29 31 31 32 32 31 31 30 30 30 31 32 29 28 32 32 32 31 32 32 31 31 33 32 32 32 32 32 32 32 32 32 32 32 32 32 31 32 32
34 32 32 31 30 28 26 26 26 30 32 28 29 30 29 29 30 31 33 32 32 32 32 32 32 31 31 31 31 31 31 31 31 32 31 31 32 31 31 31 31 32 32 32
32 31 30 29 28 28 25 25 26 28 28 27 27 27 28 29 30 31 31 31 31 31 32 32 32 32 32 32 31 31 31 31 31 31 31 31 31 31 31 31 31 31 31 31
30 30 30 28 27 25 26 26 26 25 24 26 27 28 28 27 27 28 29 29 29 30 30 31 32 33 33 33 32 31 31 31 31 30 30 30 30 30 30 30 30 30 30 30
32 30 30 27 25 24 24 24 26 23 22 25 24 25 25 26 26 25 25 27 27 28 29 30 30 30 31 32 32 32 32 31 30 30 30 30 30 30 30 30 30 30 30 30

GFSNGP_sfc_dewp_237.txt.gz
Dewpoint
26 25 22 22 22 21 22 23 23 22 20 20 22 21 22 22 24 23 26 26 26 29 32 35 39 39 39 40 41 43 42 46 49 55 59 61 61 61 61 60 63 65 65 65
19 19 19 19 19 19 19 18 20 21 21 23 25 24 25 31 32 33 33 32 31 30 30 32 34 35 38 43 46 47 46 48 49 52 56 59 62 62 62 63 63 64 64 64
17 21 20 12 21 19 20 19 20 22 27 30 26 25 25 33 33 33 33 33 34 34 35 35 35 36 38 42 43 42 44 46 48 49 50 54 60 62 62 62 62 63 64 64
17 20 4 17 18 18 16 22 32 32 32 33 32 33 30 32 32 32 33 34 33 34 34 34 36 36 38 38 41 43 41 42 45 48 50 53 57 61 60 60 61 62 62 63
19 19 18 20 21 25 25 26 30 29 30 30 33 32 31 30 31 32 33 34 34 34 34 33 33 35 36 38 39 41 41 43 45 46 48 50 54 59 60 59 59 60 59 59
22 22 14 24 31 31 29 24 29 29 29 29 34 29 29 29 30 32 32 34 34 33 32 32 32 33 33 34 36 38 41 41 42 43 47 48 50 54 58 59 59 57 57 57
26 25 28 33 33 31 24 25 30 34 34 32 30 30 30 32 31 32 32 32 33 31 31 31 32 33 33 33 33 36 39 39 42 43 45 48 50 51 55 57 56 55 54 54
19 12 13 29 25 26 32 29 35 34 34 33 32 31 32 30 31 32 32 31 31 31 31 32 32 32 32 32 34 34 35 37 38 41 43 46 49 51 52 55 55 52 49 46
22 22 23 22 25 35 33 34 33 33 33 32 30 30 31 31 32 32 30 30 30 30 31 31 31 31 32 33 34 35 35 35 35 39 40 40 44 48 50 51 50 50 45 44
21 21 20 21 22 27 28 28 26 22 29 31 31 32 31 32 32 31 30 30 30 31 31 31 31 31 32 32 33 33 34 35 35 37 39 41 46 49 51 51 50 50 45 44
20 21 23 24 25 28 28 29 31 31 32 31 31 31 32 32 31 32 31 31 32 32 32 32 32 32 32 32 33 32 32 33 35 36 39 41 45 49 50 51 51 50 47 46
21 23 24 25 26 26 29 30 31 32 31 32 32 31 33 32 32 32 32 32 31 30 29 29 30 30 31 32 32 32 33 33 35 38 40 42 45 42 36 39 39 39 39 44
22 25 24 26 26 30 30 30 31 30 30 30 32 33 33 33 33 33 31 31 30 30 30 30 31 31 31 31 33 33 33 33 35 36 39 41 44 44 42 36 36 36 37 39
25 25 26 27 30 30 30 31 32 31 31 32 33 33 33 33 32 32 31 31 31 32 32 33 33 33 33 33 33 32 33 32 34 37 39 41 45 42 41 39 39 39 35 35
27 28 28 30 30 28 31 32 30 30 30 30 31 31 31 32 32 32 31 31 31 32 32 32 31 32 34 35 35 35 32 33 35 37 39 41 40 39 40 38 37 35 33 33
26 28 30 30 31 31 30 30 29 29 30 29 30 30 32 31 32 32 31 32 31 31 32 32 32 34 35 35 37 38 35 33 33 36 38 39 39 38 36 35 34 34 33 32
29 28 30 31 31 30 29 29 29 30 31 30 31 31 31 31 31 30 31 32 31 31 31 32 32 33 34 37 38 38 37 35 34 36 41 38 37 36 35 34 33 33 32 32
29 31 33 32 28 26 26 28 29 29 29 31 30 28 29 29 30 31 31 31 30 29 30 32 33 32 33 33 33 38 37 36 35 36 36 35 35 34 34 33 33 32 32 33
28 32 32 32 30 28 27 28 28 28 29 29 29 28 28 29 30 31 31 29 29 28 30 32 32 32 32 32 32 34 35 35 34 33 33 33 33 33 32 32 32 32 32 32
31 31 31 31 31 28 27 28 28 28 29 28 28 28 28 28 30 30 30 28 30 30 31 32 32 32 32 32 32 32 32 32 32 32 32 32 32 32 32 32 32 32 32 32
31 31 30 29 26 26 25 26 26 29 27 28 27 28 28 30 29 29 28 28 30 31 30 29 31 31 32 32 32 32 32 32 32 32 32 32 32 32 32 32 32 32 32 32
31 30 28 28 26 27 27 29 28 28 29 28 28 27 25 27 29 28 29 30 31 31 30 30 30 30 31 32 32 32 32 31 31 31 31 32 31 31 31 31 31 31 31 31
32 30 30 27 28 28 28 28 27 28 24 23 27 28 28 28 30 27 25 30 31 32 31 31 31 30 29 30 30 31 31 31 30 31 31 31 31 31 31 31 31 31 30 30
32 31 31 31 30 30 29 29 28 29 26 28 26 28 28 27 25 28 29 29 30 30 31 31 32 32 30 30 29 29 29 29 30 30 30 30 30 30 30 31 31 31 30 29
33 32 33 32 30 29 29 27 26 28 26 26 25 26 27 28 28 27 28 28 27 28 29 29 30 32 32 30 29 29 29 29 29 29 29 29 29 29 29 29 29 29 30 29
32 32 32 32 31 28 26 26 26 24 25 24 23 21 21 24 25 26 25 25 25 25 27 26 27 28 29 29 30 30 29 29 29 29 28 29 29 29 28 28 28 28 28 28
31 28 31 29 26 25 25 25 24 23 22 21 22 22 21 20 20 22 19 21 21 21 23 24 24 24 25 25 25 27 26 27 28 28 29 29 29 29 29 29 29 29 29 28